Temp
21 21 21 21 20 19 19 19 18 18 18 17 17 17 16 17 17 17 17 17 17 17 17 17 17 17 18 18 18 19 19 19 16 15 15 14 14 14 14 14 14 14 13
23 21 21 21 20 19 19 19 18 18 17 17 17 16 16 16 16 16 16 16 16 16 16 16 16 17 17 17 17 17 17 17 17 15 14 13 13 13 13 13 12 12 12
21 21 21 21 20 19 19 18 18 18 17 17 17 16 16 16 16 16 16 16 15 14 15 15 16 16 16 16 17 17 17 17 16 15 14 13 12 12 12 12 12 12 11
21 21 21 20 20 19 19 18 18 18 17 17 16 16 16 16 15 16 16 15 15 15 15 15 15 15 16 16 16 15 15 16 15 15 13 12 12 12 12 11 11 11 11
22 22 21 20 19 19 19 18 18 18 17 17 16 16 16 15 15 15 16 15 15 15 15 15 14 15 15 15 16 15 16 15 14 14 13 12 12 11 12 11 10 10 10
22 22 21 20 19 20 19 18 17 17 17 17 16 16 16 16 15 15 15 15 15 15 15 14 15 14 15 15 15 15 15 15 15 14 13 13 12 12 12 11 11 11 10
21 21 21 20 19 19 19 18 17 17 17 16 16 16 16 16 16 16 15 15 15 15 15 15 15 15 15 14 14 15 15 15 15 14 13 13 13 13 12 11 11 11 11
20 21 20 20 19 19 18 17 17 17 17 16 15 15 16 15 15 15 15 15 15 14 14 15 15 15 14 15 15 14 13 13 13 14 14 13 13 13 12 12 12 11 10
18 20 19 18 18 18 18 17 17 16 16 16 15 15 15 15 15 15 15 15 14 14 14 14 14 14 14 14 15 14 13 13 13 14 14 14 14 13 12 12 12 11 11
16 18 18 18 18 17 18 17 17 16 16 15 15 14 15 15 15 15 15 15 15 14 14 13 13 14 13 13 14 14 14 13 13 14 14 14 14 13 12 12 12 11 11
16 16 16 16 16 17 17 17 17 16 15 14 14 14 14 15 15 15 14 14 14 14 13 13 13 13 13 13 13 13 13 13 13 13 13 13 13 13 12 12 12 11 10
15 15 15 16 16 16 16 16 16 15 14 14 13 13 13 13 14 14 14 13 14 14 13 13 13 13 13 14 14 14 14 14 13 13 13 13 13 12 12 12 12 12 12
14 14 14 15 16 16 17 16 15 14 14 13 13 13 12 12 12 13 13 12 13 13 13 13 13 13 13 14 14 14 14 14 13 13 12 12 13 12 12 12 12 11 12
13 13 13 14 15 15 15 15 15 14 13 12 12 12 11 11 11 11 12 12 12 13 13 13 13 13 14 14 14 14 14 13 13 13 13 13 12 12 12 12 12 12 12
12 12 13 13 13 14 14 13 13 13 13 13 12 12 11 11 11 11 11 12 12 12 13 13 13 14 13 13 13 13 13 13 13 12 12 12 12 12 12 11 11 11 11
12 12 12 12 12 12 13 12 12 12 12 12 12 12 11 11 11 11 11 11 12 12 13 13 13 14 14 14 13 13 12 12 12 12 11 11 11 11 11 11 11 11 10
12 12 11 11 11 12 11 11 10 10 11 11 11 11 11 11 10 11 11 11 12 12 13 13 13 13 13 13 13 12 12 12 12 11 11 10 10 10 10 10 10 10 10
11 11 11 11 11 11 11 11 11 11 10 10 10 10 10 10 10 10 11 11 12 12 13 13 13 13 13 13 13 12 12 12 11 11 11 10 10 10 10 10 10 10 9
12 12 12 12 12 12 12 12 12 12 11 11 10 10 10 10 11 11 11 12 12 12 13 13 13 13 13 13 13 12 12 11 11 11 11 10 10 10 10 10 10 10 10
13 13 13 13 13 13 13 13 13 13 13 12 12 12 11 11 11 12 12 13 13 13 13 13 14 14 13 13 12 12 11 11 11 11 11 11 10 10 10 10 10 10 10
14 13 13 13 13 13 14 14 14 14 14 14 14 13 13 13 13 12 12 12 12 13 13 13 13 13 13 13 12 12 12 11 11 11 11 11 11 10 10 10 10 10 10
14 14 14 14 14 14 14 14 14 13 13 13 14 14 14 13 13 13 13 13 13 13 13 13 13 13 13 12 12 11 11 11 10 10 10 10 10 10 9 9 9 9 9
15 15 15 15 15 15 15 15 15 15 14 14 14 13 13 14 13 13 12 12 13 13 13 13 12 10 10 10 10 10 9 9 8 8 8 8 8 8 8 8 7 7 8
16 16 16 16 16 16 16 16 16 15 15 15 14 13 12 12 12 12 13 12 11 11 11 10 9 9 8 8 8 7 7 7 7 7 7 7 7 7 7 6 6 6 6
16 16 16 16 16 16 16 15 15 14 14 14 14 13 12 13 12 11 11 10 9 9 9 8 8 7 6 6 6 5 5 5 6 6 6 5 5 5 4 3 3 4 4
16 16 16 15 16 15 15 14 13 14 14 13 13 12 11 10 10 9 8 8 8 8 7 7 6 5 5 5 4 4 3 4 4 4 4 4 3 3 2 1 1 2 3
Height
808 813 816 817 820 823 826 826 825 824 823 822 822 821 819 818 816 815 814 814 814 814 813 811 810 810 810 811 811 811 812 813 816 821 823 827 828 829 829 829 830 829 830
803 812 816 817 819 823 825 826 827 826 826 826 824 824 823 821 819 818 817 817 816 817 817 815 813 813 812 812 812 812 812 814 816 819 823 825 828 830 830 831 831 831 831
811 813 816 819 820 824 826 827 827 828 828 828 827 826 825 825 824 822 822 820 819 820 821 819 817 815 815 814 814 813 813 814 816 819 823 827 830 831 832 832 833 833 833
813 814 817 818 822 825 827 828 829 829 829 829 829 829 829 828 828 827 826 825 824 823 823 822 820 819 818 818 817 817 817 817 818 820 824 827 830 832 833 834 834 835 835
812 813 815 819 822 823 825 827 830 831 830 830 831 831 832 833 832 832 830 830 829 827 826 826 825 824 823 822 822 822 821 821 822 824 826 829 831 833 834 835 836 837 838
813 812 814 818 821 820 824 828 830 830 831 831 833 834 834 835 834 835 835 833 833 831 830 830 829 828 827 826 825 825 826 826 826 827 829 831 833 834 835 836 837 838 840
809 811 813 817 817 817 820 825 829 829 831 833 835 836 835 835 835 835 837 837 835 835 834 833 832 832 831 830 830 829 829 830 830 831 832 834 835 835 836 837 838 838 838
806 807 811 812 812 814 818 823 827 828 830 833 835 837 837 837 837 837 838 839 839 838 838 838 837 836 836 835 835 834 834 834 834 834 835 837 837 837 837 837 838 837 838
807 805 808 811 811 811 816 820 823 826 829 832 835 837 837 838 839 839 839 840 840 841 841 841 841 840 840 840 839 838 839 839 840 839 838 838 838 839 839 839 839 839 839
808 809 810 811 812 812 816 819 823 827 831 832 834 836 836 837 839 840 841 841 842 842 842 843 843 842 842 842 842 841 842 842 843 843 842 841 841 840 840 839 839 840 839
809 811 811 811 812 811 813 817 821 826 830 833 835 836 836 837 837 838 840 842 843 843 844 844 844 844 843 843 843 843 843 844 843 843 843 843 843 843 842 841 839 838 838
808 807 807 809 811 812 812 816 821 826 831 834 837 837 836 837 838 838 839 840 842 842 843 844 845 845 845 845 844 844 843 842 842 843 843 844 844 843 843 843 842 841 840
809 806 807 808 807 810 812 816 820 825 830 835 837 837 837 838 838 838 838 840 841 842 844 845 846 846 846 846 845 845 844 844 844 844 844 845 845 844 843 843 843 842 841
807 808 807 807 809 811 814 818 821 825 830 834 835 837 839 839 839 840 841 842 842 842 844 845 847 848 848 847 846 846 846 846 847 847 847 847 845 845 843 843 842 842 841
809 810 810 810 812 813 815 819 823 826 829 831 834 837 838 839 840 841 841 842 842 844 845 846 848 848 848 848 848 848 848 848 848 848 848 847 846 845 843 842 841 841 840
808 811 814 814 815 816 817 822 824 827 830 831 834 837 839 841 841 842 842 843 844 845 846 847 848 849 850 850 849 849 849 849 849 849 848 847 846 845 843 842 841 840 839
810 812 815 817 818 818 820 823 824 830 831 832 835 836 839 841 841 842 842 843 845 846 846 847 848 850 851 851 851 850 851 850 850 849 848 847 846 845 844 843 841 840 839
812 814 817 818 817 819 822 824 826 828 830 833 836 837 839 840 841 843 843 844 846 847 847 849 849 850 850 851 852 851 851 851 850 849 848 846 845 844 843 842 841 840 839
812 814 816 817 818 822 825 827 827 828 831 834 837 838 839 840 841 843 844 845 845 846 847 848 849 849 849 850 851 850 850 849 848 848 847 846 844 843 842 841 840 839 838
813 813 815 818 821 824 826 827 829 831 833 834 837 838 839 840 841 842 844 845 846 846 847 847 848 849 849 849 849 849 849 847 847 846 845 844 843 842 840 839 837 836 834
812 814 816 819 821 824 826 825 830 832 833 835 837 838 839 840 841 842 844 845 845 845 845 846 846 846 846 846 846 846 845 845 844 843 842 841 840 839 837 836 834 833 831
810 812 816 817 820 822 823 826 829 830 831 833 835 836 837 839 840 841 843 843 843 843 842 843 843 843 842 842 842 842 842 842 841 840 839 838 836 834 833 832 830 829 828
806 809 812 815 817 819 821 823 825 826 827 828 829 832 834 835 837 838 839 840 839 839 838 838 838 838 839 839 839 839 839 839 837 836 835 833 832 830 828 827 825 824 823
803 806 809 811 813 816 818 820 822 824 824 825 826 827 829 831 833 834 834 835 836 835 835 836 836 837 838 838 837 837 836 836 835 834 832 830 828 826 824 823 821 820 818
801 805 807 809 811 814 816 818 820 822 823 824 824 826 827 829 830 831 831 833 834 835 835 835 836 837 837 837 836 835 835 834 832 830 828 826 824 822 821 819 818 816 814
799 801 804 807 810 813 815 818 820 822 822 822 824 825 826 826 828 830 831 832 834 835 835 836 836 837 836 835 834 834 832 830 829 827 825 823 821 819 818 817 815 813 811
Wind_Speed
16 11 9 10 8 7 7 8 8 8 9 11 12 12 11 11 12 13 15 14 15 14 13 13 12 8 5 1 3 7 6 5 6 4 7 9 8 7 9 10 10 11 11
15 12 11 11 9 8 7 7 7 9 10 12 13 15 15 15 15 15 16 16 17 18 16 14 12 10 10 8 6 3 6 6 6 8 12 6 9 7 8 8 10 11 13
15 15 11 10 8 8 7 6 7 8 10 12 14 17 17 18 18 17 18 19 19 18 17 16 16 15 14 11 8 6 5 6 6 10 7 6 8 7 9 9 10 10 10
14 12 10 11 10 9 6 6 5 6 8 10 12 13 15 16 17 17 18 19 20 19 18 18 18 17 17 15 13 12 9 9 8 13 10 9 7 6 6 8 9 8 10
13 12 12 13 14 11 9 7 6 7 7 9 9 11 12 12 13 14 15 16 16 17 18 18 18 16 15 15 15 13 10 11 12 11 9 8 6 5 3 2 5 6 7
13 14 13 15 17 14 12 11 8 8 7 8 8 9 10 10 10 8 10 13 15 17 17 17 17 17 16 15 15 15 14 12 11 10 8 7 5 3 3 4 7 2 1
18 15 15 15 16 17 15 12 11 10 7 8 8 7 9 10 9 9 8 11 13 15 16 17 19 18 16 15 14 14 14 12 10 8 10 7 4 1 1 5 5 1 2
18 18 16 19 18 19 17 15 11 10 8 8 8 7 8 10 9 9 8 8 10 12 12 14 15 16 16 14 14 17 18 18 16 15 12 9 7 5 2 1 3 1 5
16 16 12 11 15 19 18 15 13 14 11 10 9 8 8 8 7 6 6 7 9 10 10 9 8 11 12 11 11 14 14 16 14 14 14 13 10 6 5 4 1 3 1
10 8 5 6 9 13 17 16 16 15 12 10 10 9 8 6 5 4 4 6 7 7 8 8 9 6 6 8 7 8 9 8 8 8 10 11 11 9 7 5 4 5 2
6 5 4 3 4 9 13 18 19 18 14 12 10 9 7 5 3 7 5 3 4 6 7 7 7 6 7 7 7 5 3 2 1 2 4 7 9 9 9 11 11 5 3
6 6 5 4 3 4 11 17 20 18 16 13 10 8 7 6 4 5 7 5 3 4 6 7 8 8 9 8 7 9 7 3 4 3 2 2 4 4 5 7 8 8 5
4 7 7 7 7 8 11 19 20 17 16 13 9 7 5 5 4 4 7 6 5 5 8 7 6 7 7 9 11 10 10 10 7 4 1 2 4 5 5 6 6 5 4
6 6 7 9 10 10 14 16 18 16 15 13 10 7 6 6 6 7 6 6 6 8 6 6 6 5 4 6 6 7 6 5 4 4 4 6 7 7 7 7 8 8 8
7 6 7 9 11 13 13 12 12 11 11 10 8 7 7 7 7 7 7 8 7 6 7 6 4 2 0 2 3 2 3 3 3 4 4 6 7 7 7 7 8 9 8
10 8 8 9 11 13 15 14 12 10 8 7 7 6 6 6 8 7 6 6 6 7 5 4 4 6 6 6 6 6 5 4 5 7 8 8 8 7 8 8 9 10 9
10 10 11 11 12 14 13 13 16 11 10 9 8 7 6 9 7 6 5 6 6 4 3 4 8 6 4 3 4 3 3 4 6 8 8 8 7 8 9 10 9 10 8
12 13 13 14 14 13 12 12 12 12 11 8 7 7 8 8 6 5 5 6 5 5 4 6 6 4 2 1 1 1 2 3 5 6 7 7 7 8 10 8 9 9 8
16 16 16 16 14 13 12 12 12 11 10 9 8 8 8 7 6 5 5 6 6 4 4 5 5 5 5 5 5 6 6 6 6 6 7 7 8 9 10 9 9 9 10
14 15 15 14 13 12 11 10 8 8 7 7 7 7 7 6 6 6 7 7 5 3 2 2 4 5 6 7 7 8 8 8 9 9 9 9 10 10 10 11 12 12 11
15 15 14 13 12 11 10 10 9 8 7 6 5 4 5 4 5 6 6 5 4 4 5 6 5 5 7 7 8 9 9 8 8 9 10 11 12 13 13 14 15 14 13
16 16 16 16 15 13 13 12 12 11 11 10 9 10 9 9 8 7 6 5 6 9 9 10 12 12 10 10 9 9 9 9 9 10 12 13 15 15 15 17 17 16 14
17 18 18 17 16 14 13 13 13 13 15 16 15 16 16 15 12 10 9 9 9 8 8 10 10 10 8 7 6 6 7 8 9 10 11 12 13 13 13 15 15 14 14
16 18 16 16 17 14 12 13 11 11 11 9 9 10 12 12 10 10 9 8 6 4 2 2 3 3 2 1 1 3 5 8 9 10 11 12 14 15 14 14 13 13 14
17 17 15 17 16 14 13 13 14 11 9 7 6 7 8 8 8 8 6 6 6 6 6 5 5 3 2 1 3 6 8 11 13 13 11 12 12 13 13 12 12 12 12
19 17 17 19 17 16 16 17 13 10 9 10 10 11 10 9 9 10 10 9 7 6 5 3 1 1 2 4 6 7 9 11 11 12 11 11 11 11 12 10 11 10 11
Wind_Direction
133 130 135 128 117 108 109 89 80 72 58 57 53 55 63 69 68 75 77 76 73 69 68 70 69 71 79 145 220 218 206 173 114 103 126 137 95 95 91 84 82 76 69
127 167 164 145 129 133 126 108 95 79 76 68 64 68 66 68 70 69 73 74 74 68 63 65 64 67 68 69 83 131 192 183 152 127 143 119 108 112 105 95 86 82 78
161 171 168 160 154 145 142 127 111 94 86 78 72 72 72 67 67 70 71 74 75 73 67 62 58 62 60 60 64 74 99 169 165 160 129 136 119 126 112 97 85 80 76
176 176 182 178 166 159 158 152 137 113 99 90 81 79 75 72 67 73 76 74 73 73 72 69 64 61 59 57 63 68 86 99 115 143 124 126 124 131 119 108 86 76 67
187 192 198 192 181 175 176 175 167 144 114 100 98 87 82 78 76 75 73 68 66 69 70 68 65 65 66 66 67 72 80 96 110 117 111 119 117 130 121 117 101 95 78
214 211 211 199 186 180 182 184 181 156 132 118 113 102 98 89 79 72 67 70 74 67 72 71 71 69 71 73 77 78 79 82 98 104 107 98 119 139 174 162 146 128 87
228 225 217 204 198 191 181 184 178 159 145 132 128 116 108 103 88 88 80 77 73 72 72 71 71 68 67 72 76 78 78 80 80 94 94 74 77 58 169 167 164 122 146
233 222 218 213 200 190 182 180 181 172 153 144 136 121 117 113 104 92 89 87 87 80 76 74 75 71 65 65 75 78 79 80 82 84 81 73 66 60 90 120 197 125 124
206 198 205 223 209 192 187 185 184 175 161 151 145 133 123 126 120 101 86 99 96 90 80 76 82 81 71 63 73 84 86 85 83 80 75 67 59 51 60 55 62 150 179
177 162 188 196 191 193 199 193 185 180 165 158 149 151 136 125 160 149 106 101 96 98 95 79 72 93 82 62 68 77 88 99 91 82 74 61 48 40 24 5 310 256 266
149 139 142 157 189 188 198 200 184 180 170 160 152 142 138 133 129 179 164 129 109 100 85 77 75 77 82 77 62 59 68 122 121 100 78 56 48 44 45 41 30 2 253
172 143 109 86 73 150 179 190 179 175 166 158 157 130 123 125 117 128 178 160 125 97 91 87 81 88 80 74 63 38 20 301 260 244 202 29 31 30 20 12 22 32 47
150 115 122 128 127 154 178 172 163 173 168 167 167 145 135 127 128 117 142 157 141 102 105 96 98 112 86 69 57 43 37 46 56 66 125 313 319 316 321 329 333 324 326
150 124 115 118 123 138 159 171 169 167 170 172 164 152 145 128 123 134 133 129 118 120 122 106 113 116 92 76 60 51 47 46 40 29 3 343 333 311 310 310 318 321 309
151 138 131 130 129 128 132 139 152 160 172 170 167 171 165 154 138 126 125 124 124 131 137 134 150 136 188 46 31 13 3 1 353 355 342 334 331 332 341 329 319 315 307
160 160 155 145 138 131 130 125 130 135 152 152 152 161 153 152 142 132 125 126 140 149 155 154 136 106 78 57 28 15 9 13 1 345 333 330 330 334 342 341 336 324 301
170 168 170 169 151 139 137 140 130 128 134 137 141 137 145 156 152 144 143 147 158 158 146 141 149 132 110 73 50 44 44 22 2 344 336 329 328 336 335 332 322 337 324
168 164 162 153 144 138 141 144 150 149 142 140 143 146 150 156 153 149 152 157 162 158 147 159 165 170 181 249 300 290 295 320 344 351 351 341 331 331 324 310 312 319 319
164 158 150 141 136 132 130 134 135 130 130 134 144 148 153 158 160 167 173 170 166 178 190 201 221 233 248 273 289 289 295 297 308 317 325 322 331 329 312 303 309 308 305
171 160 156 151 151 153 148 140 143 141 135 135 148 160 167 175 184 182 184 187 191 187 210 250 264 266 266 269 284 295 295 298 300 301 309 312 317 309 312 311 298 291 297
183 179 178 178 179 183 181 172 192 193 190 195 186 175 174 173 170 170 184 211 248 273 273 273 277 258 263 270 275 276 288 298 297 299 299 299 295 293 297 302 302 302 293
192 195 200 205 198 211 215 215 225 234 242 243 235 227 217 218 213 216 234 257 283 290 279 278 253 248 254 259 259 258 270 277 287 290 294 296 295 292 290 292 293 294 292
209 206 206 210 213 219 223 227 239 251 261 262 250 239 231 228 225 229 245 263 270 263 266 255 240 231 235 242 251 270 289 299 305 312 317 316 317 314 309 302 298 294 289
189 185 192 206 216 213 211 222 235 243 247 239 241 232 223 224 224 225 239 249 244 236 218 191 176 179 182 206 278 317 324 326 329 328 325 322 320 318 315 309 304 300 294
193 196 207 201 192 198 202 201 206 210 202 198 191 180 172 174 192 196 191 182 165 149 141 139 139 137 121 15 350 345 340 337 334 331 328 324 321 318 317 318 321 317 311
192 195 194 186 181 182 185 187 182 175 174 170 169 173 177 179 168 153 142 142 143 141 134 127 117 0 340 341 343 342 345 348 348 345 351 352 352 352 349 347 342 333 327